SL-14 R/B, 27061

Orbit data source: Space-Track

SL-14 R/B, 27061 is space debris in LEO originally from a launch on Fri, 28 Dec 2001 UTC launched from the Plesetsk Missile And Space Complex (PKMTR). Debris objects in space refer to the collection of defunct objects orbiting the Earth. Examples of debris include non-operational satellites, rocket bodies, and fragments generated from explosions, collisions, or faulty payload assembly.

Loading next visibility...
SL-14 R/B details
Identifier
27061, 2001-058G
Orbit
LEO
Last TLE update12 hours ago
Origin
Flag of CISKVR (CIS)
ManufacturerYuzhnoe
MissionSpacecraft
Bus & MotorS5M, Unknown motor
Mass1,600 kg wet, 1,600 kg dry
Launch date (UTC)
2001-12-28 (23 years ago)
Launch vehicleUnknown
Launch site
Plesetsk Missile And Space Complex (PKMTR)
Object type
Payload
Rocket body
Debris
Shape & HBRCyl, 2.7 m
Radar Cross Section7.351 m², Large (>1 m²)

Expand to show TLE details & history

TLE from 12 hours ago
0 SL-14 R/B
1 27061U 01058G   25046.96377881  .00000003  00000-0 -45726-4 0  9998
2 27061  82.5396 241.1944 0044296 117.5424 353.1158 12.53950092 59089
Epoch: 2025-02-15T23:07Z
Definitive object data (Epoch: 2025-02-15T23:07:50.489Z)
Latitude68.22333°
Longitude-91.00581°
Altitude1,425.375 km
Speed7.17 km/s
True Right ascension02h 48m 37s
True Declination68° 06' 53"
Sunlit
Object was in daylight at TLE epoch
Visualization TLE readout
Latitude-76.04152°
Longitude76.08541°
Altitude1,509.048 km
Speed7.095 km/s
Apparent Right ascension02h 31m 39s
Apparent Declination-75° 36' 04"
Sunlit
Object is in daylight
Visualization observer readout
Local Sidereal Time14:18:12
Azimuth181.432° SSW
Elevation-54.283°
Doppler factor1
Orbital elements
Apogee altitude1,480.005 km
Perigee altitude1,410.695 km
Semi-major axis7,823.487 km
Eccentricity0.0044296
Inclination82.5396°
RAAN241.1944°
Arg. of periapsis117.5424°
True anomaly353.05462°
Mean anomaly353.1158°
Eccentric anomaly353.08524°
Mean motion3.13648 °/min
BSTAR-0.000045726
Orbital period114.78 mins
Loading maneuver chart data...
Loading historical data...
Loading historical data...
Loading historical data...
Loading historical data...
Loading historical data...
Loading historical data...
Loading historical data...

SL-14 R/B Visibility forecast

Observer location: undefined°, undefined

Span
Click to sort rows by Start time (UTC) header in descending order
Start Az.
Max El. time (UTC)
Max El. Az.
Max El.
End time (UTC)
End Az.
12 mins2025-02-16 12:03:49.700Z129.48° SE2025-02-16 12:09:49.700Z82.347° E22.418°2025-02-16 12:15:49.700Z34.221° NE
15 mins2025-02-16 13:57:49.700Z199.853° SSW2025-02-16 14:04:49.700Z276.903° WNW42.632°2025-02-16 14:12:49.700Z2.06° NNE
4 mins2025-02-16 16:00:49.700Z289.837° WNW2025-02-16 16:02:49.700Z304.437° NW11.705°2025-02-16 16:04:49.700Z318.808° NNW
14 mins2025-02-17 00:03:49.700Z5.123° NNE2025-02-17 00:09:49.700Z66.437° ENE38.897°2025-02-17 00:17:49.700Z152.506° SSE
12 mins2025-02-17 01:59:49.700Z327.255° NNW2025-02-17 02:05:49.700Z272.823° WNW26.606°2025-02-17 02:11:49.700Z222.404° SW
|